星链-5293 (STARLINK-5293 )

导读 | 星芒AI

STARLINK-5293 是 SpaceX Starlink 卫星互联网项目中的一颗低轨通信卫星。它属于 Starlink 群体部署计划的一部分,旨在为全球用户提供高速互联网服务。该卫星运行在约 550 公里的近地轨道上,采用先进的推进和通信技术,支持宽带数据传输。STARLINK-5293 于 2022 年发射,是 SpaceX 扩展其全球卫星网络、提升网络覆盖与连接能力的重要组成部分。

基本信息
目录编号:
55295
目录名称:
STARLINK-5293
国际标识:
2023-010AC
轨道中心:
EARTH
卫星名称:
星链-5293
卫星全名:
星链-5293 (STARLINK-5293 )
卫星状态:
在轨 (已飞行1067 天)
发射日期:
2023-01-19 UTC
国别 :
美国 (US)
星等 :
--
轨道信息
数据来源 国际轨道数据 AOE轨道数据
星历时间 2025-12-21T10:52:47+0800
8小时前
查看轨道信息
2025-12-18T07:00:00+0800
3天前
查看轨道信息
半长轴 6950.197km 6950.162km
偏心率 0.0003013 0.0003149
轨道倾角 69.998° 69.999°
近地点辐角 269.115° 280.388°
升交点赤经 242.687° 250.655°
平近点角 90.966° 310.636°
近地点 569.965km 569.838km
远地点 574.155km 574.216km
周期 96.107分钟 96.106分钟
每日圈数 14.983289 14.983401
详细信息
固有亮度:
5
最大亮度:
2.5
卫星平台:
Starlink v1.5
覆盖范围:
全球
运营商:
太空探索技术公司
运营商所在国:
美国
制造商(研发单位):
太空探索技术公司
制造商所在国:
美国
使用方式:
暂无
卫星简介
星链(Starlink)计划是由太空探索技术公司(SpaceX)提出的一个巨型低轨卫星互联网星座项目,计划在2019年至2024年间在太空搭建由约1.2万颗卫星组成的“星链”网络,其中1584颗将部署在地球上空550千米处的近地轨道,并从2020年开始工作。该卫星仍在工作。
2D轨道图
3D轨道图
轨道高度分析图
轨道倾角分析图
轨道综合分析图
查看轨道综合分析图